[[[{"header":{"parameterUnit":"kt","parameterCategory":2,"dx":1,"dy":1,"la1":30.253999710083008,"la2":30.299108505249023,"lo1":-89.0895004272461,"lo2":-89.04439544677734,"nx":28,"ny":28,"refTime":"2022-09-21T09:00:00:Z","depth":0,"parameterNumber":1,"parameterNumberName":"U-component_of_WINDS"},"data":[-0.0979,-0.1053,-0.1058,-0.1146,-0.1165,-0.1227,-0.1251,-0.1282,-0.1309,-0.1384,-0.1428,-0.1441,-0.1471,-0.1526,-0.1575,-0.158,-0.1602,-0.1624,-0.1627,-0.1521,-0.1507,-0.1494,-0.1477,-0.1628,-0.1628,-0.1738,-0.1739,-0.1739,-0.09,-0.092,-0.0968,-0.1018,-0.1059,-0.104,-0.1079,-0.1115,-0.1171,-0.1204,-0.1248,-0.1314,-0.1368,-0.1391,-0.1444,-0.148,-0.1476,-0.1495,-0.1494,-0.15,-0.1386,-0.1368,-0.1497,-0.1497,-0.1497,-0.1497,-0.1497,-0.1497,-0.076,-0.0804,-0.0837,-0.0889,-0.0915,-0.0949,-0.0993,-0.1008,-0.1055,-0.1111,-0.1108,-0.1172,-0.1207,-0.1274,-0.1298,-0.1349,-0.133,-0.1353,-0.136,-0.1366,-0.1373,-0.1218,-0.1358,-0.1358,-0.1357,-0.1357,-0.1357,0,-0.066,-0.0661,-0.0707,-0.0755,-0.0793,-0.083,-0.0866,-0.0893,-0.0899,-0.0938,-0.0996,-0.103,-0.1098,-0.1154,-0.1205,-0.1226,-0.1214,-0.1212,-0.1229,-0.1234,-0.123,-0.1236,-0.1053,-0.121,-0.1208,-0.1207,-0.1207,-0.1206,-0.0521,-0.0571,-0.0608,-0.064,-0.0661,-0.0712,-0.0744,-0.0745,-0.0779,-0.0824,-0.0864,-0.0918,-0.0963,-0.1055,-0.1075,-0.1126,-0.1122,-0.1182,-0.113,-0.1131,-0.1127,-0.1125,-0.1132,-0.1193,-0.1195,-0.1196,-0.1197,0,-0.0443,-0.0452,-0.0531,-0.0563,-0.0573,-0.0626,-0.0654,-0.0699,-0.0709,-0.0772,-0.0787,-0.0805,-0.0862,-0.0872,-0.0939,-0.0943,-0.1034,-0.1026,-0.1022,-0.1022,-0.1079,-0.1074,-0.1255,-0.128,-0.1121,-0.1122,-0.1123,0,-0.033,-0.0396,-0.0405,-0.0451,-0.0524,-0.0524,-0.0597,-0.0614,-0.0643,-0.0693,-0.0679,-0.0726,-0.0732,-0.0781,-0.0786,-0.0862,-0.0874,-0.0882,-0.0884,-0.0886,-0.0885,-0.0908,-0.0902,-0.0881,-0.088,-0.0879,-0.0879,0,-0.021,-0.0291,-0.0365,-0.0385,-0.0427,-0.0462,-0.0481,-0.0515,-0.0546,-0.0589,-0.061,-0.0659,-0.0687,-0.0726,-0.0734,-0.0698,-0.0825,-0.0778,-0.0834,-0.0834,-0.0865,-0.0864,-0.1018,-0.0878,-0.0877,-0.0877,-0.0877,0,-0.0122,-0.0163,-0.0267,-0.0302,-0.0324,-0.0373,-0.0421,-0.0465,-0.0501,-0.0508,-0.0541,-0.0535,-0.0599,-0.0553,-0.0643,-0.0595,-0.0624,-0.0637,-0.0641,-0.0651,-0.06,-0.0689,-0.0832,-0.0849,-0.0656,-0.0654,-0.0652,0,0.0017,-0.0091,-0.0092,-0.0191,-0.0243,-0.0225,-0.0279,-0.0311,-0.0324,-0.0371,-0.0385,-0.0439,-0.0406,-0.0425,-0.0467,-0.0486,-0.0547,-0.0477,-0.0549,-0.0551,-0.0543,-0.0673,-0.0694,-0.0799,-0.0629,-0.0631,-0.0633,0,0.0123,0.0073,0.0056,0.0032,-0.001,-0.0053,-0.0115,-0.0167,-0.0198,-0.0235,-0.0289,-0.0363,-0.0342,-0.0373,-0.0373,-0.0417,-0.0506,-0.0389,-0.039,-0.0413,-0.0617,-0.0636,-0.0654,-0.0496,-0.0499,-0.0501,-0.0614,0,0.0253,0.0199,0.0152,0.01,0.0065,0.0003,-0.0007,-0.0042,-0.0038,-0.0051,-0.0129,-0.0159,-0.0214,-0.0235,-0.0233,-0.0329,-0.0316,-0.0293,-0.0252,-0.0336,-0.0374,-0.0389,-0.0194,-0.0193,-0.0192,-0.0191,0,0,0.0386,0.0308,0.0308,0.0249,0.0219,0.0239,0.0172,0.0146,0.0092,0.007,0.0095,-0.0016,-0.0042,-0.0136,-0.0162,-0.0184,-0.0203,-0.0174,-0.0295,-0.0306,-0.0317,-0.0357,-0.0373,-0.019,-0.0189,-0.0189,-0.0188,0,0.0431,0.0408,0.0343,0.0316,0.0276,0.0266,0.0251,0.0214,0.0202,0.0127,0.0142,0.0094,0.0007,-0.0024,-0.0051,-0.0161,-0.015,-0.0177,-0.0234,-0.0284,-0.0297,-0.0308,-0.035,-0.0365,-0.0186,-0.0186,-0.0186,0,0.0531,0.0505,0.0473,0.0409,0.0383,0.0329,0.0372,0.0314,0.0274,0.0295,0.022,0.0201,0.016,0.0074,0.0035,0.0055,-0.01,-0.0053,-0.0059,-0.0065,-0.0115,-0.013,-0.0144,0.0035,0.0036,0.0037,0,0,0.0571,0.0521,0.0491,0.0418,0.0401,0.0385,0.0355,0.0356,0.0319,0.0305,0.028,0.0243,0.0192,0.0158,0.011,0.0017,0.0007,-0.0025,-0.0035,-0.0044,-0.0054,-0.0106,-0.0121,0.004,0.004,0.004,0,0,0.0589,0.0553,0.0563,0.0477,0.0443,0.0408,0.0362,0.0374,0.0329,0.0335,0.0331,0.0321,0.024,0.0221,0.0264,0.0124,0.0166,0.0155,0.0139,0.0125,0.0115,0.012,0.03,0,0,0,0,0,0.0629,0.0558,0.0567,0.0552,0.047,0.0403,0.0392,0.0388,0.0418,0.0382,0.0364,0.0379,0.0243,0.0281,0.0264,0.0215,0.008,0.0073,0.0066,0.0023,0.0009,-0.0002,0,0,0,0,0,0,0.0623,0.0604,0.0569,0.0531,0.0513,0.0405,0.0455,0.0452,0.0422,0.0426,0.0383,0.0378,0.0372,0.0289,0.0274,0.0228,0.0305,0.0077,0.0071,0.0066,0.0019,0.0007,-0.0003,0,0,0,0,0,0.0618,0.0603,0.0473,0.0532,0.0516,0.0494,0.0457,0.0455,0.0432,0.0403,0.0399,0.0431,0.0371,0.0358,0.028,0.0235,0.0316,0.031,0.0073,0.0068,0.0064,0.0013,0,0,0,0,0,0,0.0614,0.0599,0.0469,0.0464,0.0559,0.05,0.0491,0.0458,0.041,0.0406,0.0452,0.0455,0.037,0.036,0.035,0.0237,0.0324,0.0318,0.0315,0.007,0.0066,0.0063,0,0,0,0,0,0,0.0608,0.0595,0.0467,0.0501,0.05,0.0505,0.0497,0.043,0.041,0.0462,0.0464,0.0454,0.0384,0.036,0.0353,0.0248,0.0331,0.0325,0.0321,0.0319,0.0067,0.0064,0,0,0,0,0,0,0.0602,0.0591,0.0502,0.0501,0.05,0.0443,0.0446,0.0362,0.0441,0.0464,0.0448,0.0451,0.0384,0.0376,0.0355,0.0254,0.025,0.033,0.0327,0.0324,0.0322,0,0,0,0,0,0,0,0.0598,0.0673,0.05,0.0501,0.0501,0.0417,0.0416,0.0414,0.0441,0.0444,0.0447,0.0449,0.0361,0.0356,0.035,0.0258,0,0,0.0331,0.0328,0,0,0,0,0,0,0,0,0.0678,0.0674,0.0499,0.0498,0.0497,0.0417,0.0416,0.0415,0.0442,0.0444,0.0446,0.0448,0.036,0.0355,0.035,0,0,0,0,0,0,0,0,0,0,0,0,0,0,0,0.0499,0.0498,0,0.0417,0.0416,0.0415,0.0442,0.0444,0.0446,0.0448,0.0359,0.0355,0.0351,0,0,0,0,0,0,0,0,0,0,0,0,0,0,0,0,0,0,0,0,0,0,0,0,0,0,0,0,0,0,0,0,0,0,0,0,0,0,0,0,0,0,0,0,0,0,0,0,0,0,0,0,0,0,0,0,0,0,0,0,0,0,0,0,0,0,0,0,0]}],[{"header":{"parameterUnit":"kt","parameterCategory":2,"dx":1,"dy":1,"la1":30.253999710083008,"la2":30.299108505249023,"lo1":-89.0895004272461,"lo2":-89.04439544677734,"nx":28,"ny":28,"refTime":"2022-09-21T09:00:00:Z","depth":0,"parameterNumber":2,"parameterNumberName":"V-component_of_WINDS"},"data":[-6.8799,-6.8937,-6.8949,-6.9111,-6.9148,-6.9259,-6.9302,-6.9359,-6.9405,-6.9537,-6.9614,-6.9637,-6.9685,-6.9777,-6.9859,-6.9866,-6.99,-6.9941,-6.9943,-6.9751,-6.9725,-6.97,-6.9669,-6.9948,-6.9949,-7.014,-7.0141,-7.0143,-6.8658,-6.8698,-6.8787,-6.8881,-6.8957,-6.8924,-6.8994,-6.9059,-6.9159,-6.9217,-6.9293,-6.9409,-6.95,-6.9534,-6.9623,-6.9684,-6.9673,-6.9708,-6.9703,-6.9711,-6.9506,-6.9474,-6.9716,-6.9716,-6.9716,-6.9716,-6.9716,-6.9715,-6.8405,-6.8487,-6.8551,-6.8647,-6.8697,-6.8759,-6.8838,-6.8866,-6.8951,-6.9047,-6.9041,-6.9153,-6.9211,-6.9321,-6.9359,-6.9444,-6.9407,-6.9447,-6.9457,-6.9467,-6.9478,-6.9202,-6.9459,-6.9459,-6.9458,-6.9458,-6.9457,0,-6.8222,-6.8227,-6.8313,-6.8403,-6.8473,-6.8543,-6.8608,-6.8657,-6.8665,-6.8735,-6.8836,-6.8895,-6.9011,-6.9105,-6.9189,-6.922,-6.919,-6.9188,-6.9216,-6.9221,-6.9215,-6.922,-6.8886,-6.918,-6.9178,-6.9176,-6.9175,-6.9174,-6.7967,-6.8062,-6.8133,-6.8192,-6.823,-6.8325,-6.8382,-6.8383,-6.8444,-6.8522,-6.8593,-6.8688,-6.8764,-6.892,-6.8947,-6.9032,-6.9018,-6.913,-6.9031,-6.9032,-6.902,-6.9015,-6.9024,-6.9149,-6.9152,-6.9154,-6.9157,0,-6.7822,-6.784,-6.7989,-6.805,-6.8068,-6.8166,-6.8216,-6.8296,-6.8313,-6.8425,-6.8451,-6.8476,-6.8574,-6.8583,-6.8694,-6.8696,-6.8853,-6.8837,-6.8834,-6.8831,-6.8931,-6.8922,-6.9257,-6.93,-6.9011,-6.9013,-6.9016,0,-6.7611,-6.7735,-6.7753,-6.7839,-6.7976,-6.7973,-6.8108,-6.8135,-6.8186,-6.8275,-6.8243,-6.8327,-6.8325,-6.8409,-6.8411,-6.8541,-6.8561,-6.857,-6.8569,-6.8573,-6.8572,-6.8604,-6.859,-6.8563,-6.8561,-6.856,-6.8558,0,-6.7383,-6.7537,-6.7677,-6.7714,-6.779,-6.7855,-6.7888,-6.7945,-6.8001,-6.8074,-6.811,-6.8195,-6.8241,-6.8306,-6.8308,-6.8241,-6.8468,-6.8375,-6.8476,-6.8476,-6.8526,-6.8523,-6.8817,-6.8556,-6.8556,-6.8555,-6.8554,0,-6.7215,-6.7293,-6.7492,-6.7554,-6.7594,-6.7685,-6.777,-6.785,-6.7912,-6.792,-6.7977,-6.7956,-6.8071,-6.7979,-6.8137,-6.8048,-6.8095,-6.8114,-6.8121,-6.8131,-6.8028,-6.8193,-6.8473,-6.8502,-6.8141,-6.8138,-6.8135,0,-6.6948,-6.7154,-6.7154,-6.7343,-6.7439,-6.7399,-6.7499,-6.7555,-6.7574,-6.7656,-6.7675,-6.7769,-6.7702,-6.7732,-6.7809,-6.7832,-6.7947,-6.7817,-6.7932,-6.7936,-6.7918,-6.8176,-6.8215,-6.8411,-6.8091,-6.8096,-6.8099,0,-6.6744,-6.6837,-6.687,-6.6913,-6.6988,-6.7068,-6.7183,-6.7276,-6.7331,-6.7397,-6.7493,-6.7623,-6.7578,-6.7628,-6.762,-6.7699,-6.7869,-6.7639,-6.7641,-6.768,-6.8069,-6.8107,-6.814,-6.7845,-6.7851,-6.7855,-6.8064,0,-6.6486,-6.6591,-6.6683,-6.6778,-6.6842,-6.696,-6.6972,-6.7036,-6.7023,-6.704,-6.718,-6.7227,-6.7319,-6.7358,-6.7345,-6.7525,-6.7495,-6.7446,-6.7356,-6.7525,-6.7594,-6.7622,-6.7253,-6.725,-6.7248,-6.7246,0,0,-6.6227,-6.6378,-6.6374,-6.6487,-6.654,-6.6496,-6.6621,-6.6667,-6.676,-6.6797,-6.6747,-6.6938,-6.6978,-6.7146,-6.72,-6.7237,-6.727,-6.721,-6.7445,-6.7467,-6.7487,-6.7561,-6.759,-6.7242,-6.7241,-6.724,-6.724,0,-6.6135,-6.6181,-6.6307,-6.6355,-6.6426,-6.6438,-6.6468,-6.653,-6.6546,-6.6684,-6.6644,-6.6728,-6.6881,-6.6928,-6.6972,-6.719,-6.7154,-6.7217,-6.7332,-6.7422,-6.7447,-6.747,-6.7547,-6.7575,-6.7234,-6.7235,-6.7235,0,-6.5936,-6.5983,-6.6045,-6.6165,-6.621,-6.6309,-6.6219,-6.6328,-6.6401,-6.6343,-6.6481,-6.6508,-6.6571,-6.6729,-6.68,-6.6757,-6.7048,-6.6957,-6.6971,-6.6979,-6.7067,-6.7097,-6.7124,-6.6771,-6.6769,-6.6768,0,0,-6.5855,-6.5953,-6.6002,-6.6146,-6.6177,-6.6198,-6.6251,-6.6244,-6.6304,-6.6328,-6.6362,-6.642,-6.6508,-6.6566,-6.6649,-6.6822,-6.6834,-6.69,-6.6922,-6.694,-6.6957,-6.705,-6.708,-6.6761,-6.6761,-6.6761,0,0,-6.5815,-6.5879,-6.5856,-6.6025,-6.6085,-6.6141,-6.6227,-6.6199,-6.6276,-6.6263,-6.6253,-6.6268,-6.6415,-6.6443,-6.6359,-6.6617,-6.6528,-6.6549,-6.6594,-6.6622,-6.6643,-6.6633,-6.6271,0,0,0,0,0,-6.5728,-6.5872,-6.585,-6.588,-6.603,-6.6153,-6.6172,-6.6169,-6.6106,-6.6175,-6.6198,-6.6156,-6.6396,-6.6321,-6.635,-6.6443,-6.6681,-6.6696,-6.6709,-6.6808,-6.6837,-6.6862,0,0,0,0,0,0,-6.574,-6.5777,-6.5846,-6.5909,-6.5942,-6.6148,-6.6042,-6.6045,-6.6099,-6.6089,-6.6153,-6.6158,-6.6155,-6.6306,-6.6332,-6.6421,-6.6262,-6.6687,-6.6699,-6.671,-6.6818,-6.6842,-6.6862,0,0,0,0,0,-6.5749,-6.5779,-6.6021,-6.5907,-6.5936,-6.5965,-6.6036,-6.6038,-6.6079,-6.6116,-6.612,-6.6072,-6.6158,-6.6179,-6.6321,-6.6409,-6.6244,-6.6254,-6.6695,-6.6704,-6.6713,-6.683,0,0,0,0,0,0,-6.5756,-6.578,-6.6026,-6.6035,-6.5852,-6.5954,-6.597,-6.6032,-6.6103,-6.6108,-6.6034,-6.6026,-6.6162,-6.6177,-6.6194,-6.6406,-6.623,-6.6239,-6.6245,-6.6702,-6.6709,-6.6716,0,0,0,0,0,0,-6.5764,-6.5788,-6.6031,-6.5963,-6.5963,-6.5943,-6.5957,-6.6076,-6.6104,-6.6016,-6.6012,-6.6029,-6.6136,-6.6177,-6.619,-6.6376,-6.6218,-6.6228,-6.6234,-6.6238,-6.6708,-6.6714,0,0,0,0,0,0,-6.5774,-6.5795,-6.596,-6.5961,-6.5961,-6.6058,-6.6048,-6.6201,-6.6049,-6.6014,-6.6035,-6.6028,-6.6136,-6.6149,-6.6187,-6.6368,-6.6374,-6.6219,-6.6225,-6.623,-6.6233,0,0,0,0,0,0,0,-6.5782,-6.5647,-6.5976,-6.596,-6.596,-6.6115,-6.6117,-6.612,-6.6047,-6.6042,-6.6036,-6.6031,-6.6165,-6.6175,-6.6185,-6.6362,0,0,-6.6218,-6.6222,0,0,0,0,0,0,0,0,-6.5639,-6.5645,-6.5976,-6.5978,-6.5979,-6.6115,-6.6117,-6.6119,-6.6046,-6.6042,-6.6037,-6.6033,-6.6167,-6.6176,-6.6184,0,0,0,0,0,0,0,0,0,0,0,0,0,0,0,-6.5976,-6.5977,0,-6.6116,-6.6117,-6.6119,-6.6046,-6.6042,-6.6038,-6.6035,-6.617,-6.6177,-6.6184,0,0,0,0,0,0,0,0,0,0,0,0,0,0,0,0,0,0,0,0,0,0,0,0,0,0,0,0,0,0,0,0,0,0,0,0,0,0,0,0,0,0,0,0,0,0,0,0,0,0,0,0,0,0,0,0,0,0,0,0,0,0,0,0,0,0,0,0,0]}]]]